This is the latest recevied weather packets stored in our database for station/object KG7KID-7. If no packets are shown the sender has not sent any weather packets the latest 10 day(s).
| Time | Temp. | Humidity | Pressure | Rain* | Wind** | Luminosity | Snow |
|---|---|---|---|---|---|---|---|
| 1777499926 | 27.78° C | 11% | 975.7 hPa | 0 mm | - | - | - |
| 1777499871 | 27.22° C | 12% | 975.6 hPa | 0 mm | - | - | - |
| 1777499627 | 27.22° C | 12% | 975.6 hPa | 0 mm | - | - | - |
| 1777499326 | 27.22° C | 12% | 975.7 hPa | 0 mm | - | - | - |
| 1777498727 | 26.67° C | 12% | 975.8 hPa | 0 mm | - | - | - |
| 1777498426 | 26.67° C | 12% | 975.7 hPa | 0 mm | - | - | - |
| 1777498364 | 26.67° C | 12% | 976.2 hPa | 0 mm | - | - | - |
| 1777498126 | 26.67° C | 12% | 976.2 hPa | 0 mm | - | - | - |
| 1777497826 | 27.22° C | 12% | 976.3 hPa | 0 mm | - | - | - |
| 1777497406 | 26.67° C | 12% | 976.5 hPa | 0 mm | - | - | - |
| 1777497106 | 27.22° C | 12% | 976.6 hPa | 0 mm | - | - | - |
| 1777496805 | 27.22° C | 12% | 976.6 hPa | 0 mm | - | - | - |
| 1777496505 | 26.67° C | 12% | 976.7 hPa | 0 mm | - | - | - |
| 1777495007 | 26.67° C | 12% | 977.1 hPa | 0 mm | - | - | - |
| 1777494405 | 26.11° C | 13% | 977.1 hPa | 0 mm | - | - | - |
| 1777494106 | 26.11° C | 13% | 977.1 hPa | 0 mm | - | - | - |
| 1777493805 | 26.11° C | 13% | 977.2 hPa | 0 mm | - | - | - |
| 1777493281 | 26.11° C | 14% | 977.5 hPa | 0 mm | - | - | - |
| 1777492981 | 25.56° C | 14% | 977.5 hPa | 0 mm | - | - | - |
| 1777492060 | 25.56° C | 14% | 977.9 hPa | 0 mm | - | - | - |
| 1777491761 | 25° C | 14% | 978 hPa | 0 mm | - | - | - |
| 1777491461 | 25° C | 14% | 978.1 hPa | 0 mm | - | - | - |
| 1777491160 | 25° C | 15% | 978.2 hPa | 0 mm | - | - | - |
| 1777490562 | 25° C | 14% | 978.6 hPa | 0 mm | - | - | - |
| 1777490128 | 25° C | 15% | 978.8 hPa | 0 mm | - | - | - |
* Rain latest hour (hover to see other rain measurements)
** Current wind speed in m/s (hover to see current wind gust speed)